Lake Celilo Weather Center

Moon Phase Calendar



Lake Celilo Water Level
Online Cameras

 


      

Current Conditions in Goldendale
4/14/2021 4:53:21 PM

64°F
Feels Like 61
Clouds
Humidity
30%
Pressure
29.97"
Wind
15 mph (NE)
Dew Point
32°F
UV Index
2/10 (Low)
Visibility
6 mi

Hourly Forecast

Date & Time Wed, Apr 14
4:00 PM
Wed, Apr 14
5:00 PM
Wed, Apr 14
6:00 PM
Wed, Apr 14
7:00 PM
Wed, Apr 14
8:00 PM
Wed, Apr 14
9:00 PM
Wed, Apr 14
10:00 PM
Wed, Apr 14
11:00 PM
Thu, Apr 15
12:00 AM
Thu, Apr 15
1:00 AM
Thu, Apr 15
2:00 AM
Thu, Apr 15
3:00 AM
Thu, Apr 15
4:00 AM
Thu, Apr 15
5:00 AM
Thu, Apr 15
6:00 AM
Thu, Apr 15
7:00 AM
Thu, Apr 15
8:00 AM
Thu, Apr 15
9:00 AM
Thu, Apr 15
10:00 AM
Thu, Apr 15
11:00 AM
Thu, Apr 15
12:00 PM
Thu, Apr 15
1:00 PM
Thu, Apr 15
2:00 PM
Thu, Apr 15
3:00 PM
Thu, Apr 15
4:00 PM
Thu, Apr 15
5:00 PM
Thu, Apr 15
6:00 PM
Thu, Apr 15
7:00 PM
Thu, Apr 15
8:00 PM
Thu, Apr 15
9:00 PM
Thu, Apr 15
10:00 PM
Thu, Apr 15
11:00 PM
Fri, Apr 16
12:00 AM
Fri, Apr 16
1:00 AM
Fri, Apr 16
2:00 AM
Fri, Apr 16
3:00 AM
Fri, Apr 16
4:00 AM
Fri, Apr 16
5:00 AM
Fri, Apr 16
6:00 AM
Fri, Apr 16
7:00 AM
Fri, Apr 16
8:00 AM
Fri, Apr 16
9:00 AM
Fri, Apr 16
10:00 AM
Fri, Apr 16
11:00 AM
Fri, Apr 16
12:00 PM
Fri, Apr 16
1:00 PM
Fri, Apr 16
2:00 PM
Fri, Apr 16
3:00 PM
Condition
Clear

Clouds

Clouds

Clouds

Clouds

Clouds

Clouds

Clouds

Clear

Clouds

Clouds

Clouds

Clouds

Clouds

Clear

Clear

Clear

Clear

Clear

Clear

Clear

Clear

Clear

Clear

Clear

Clear

Clear

Clear

Clear

Clear

Clear

Clear

Clear

Clear

Clear

Clear

Clear

Clear

Clear

Clear

Clear

Clear

Clear

Clear

Clear

Clear

Clear

Clear
Temperature 64°F64°F63°F62°F57°F55°F52°F50°F49°F48°F48°F47°F47°F46°F45°F47°F53°F57°F61°F64°F66°F68°F70°F70°F70°F70°F69°F64°F58°F56°F55°F54°F53°F52°F51°F50°F50°F49°F49°F51°F56°F60°F65°F69°F71°F73°F73°F74°F
Feels Like 61°F61°F61°F59°F55°F52°F49°F47°F48°F47°F47°F45°F45°F45°F44°F47°F50°F55°F59°F62°F64°F67°F68°F69°F69°F68°F67°F62°F56°F54°F52°F51°F51°F50°F49°F48°F49°F49°F49°F48°F54°F58°F63°F67°F69°F71°F72°F72°F
Cloudiness 10%11%16%15%18%34%52%57%8%14%24%22%19%16%0%0%0%0%0%0%0%2%3%3%2%2%0%0%0%0%0%0%0%0%0%0%0%0%0%0%0%0%0%0%0%0%0%0%
Visibility 6 mi6 mi6 mi6 mi6 mi6 mi6 mi6 mi6 mi6 mi6 mi6 mi6 mi6 mi6 mi6 mi6 mi6 mi6 mi6 mi6 mi6 mi6 mi6 mi6 mi6 mi6 mi6 mi6 mi6 mi6 mi6 mi6 mi6 mi6 mi6 mi6 mi6 mi6 mi6 mi6 mi6 mi6 mi6 mi6 mi6 mi6 mi6 mi
Precipitation 0%0%0%0%0%0%0%0%0%0%0%0%0%0%0%0%0%0%0%0%0%0%0%0%0%0%0%0%0%0%0%0%0%0%0%0%0%0%0%0%0%0%0%0%0%0%0%0%
Humidity 31%30%32%38%43%45%50%53%56%57%58%59%61%62%63%63%55%48%41%37%35%32%31%31%32%33%39%48%50%51%54%55%56%58%59%61%62%64%65%63%56%50%43%33%28%25%26%26%
Dew Point 33°F32°F33°F36°F35°F34°F31°F31°F31°F31°F31°F31°F31°F31°F31°F32°F34°F35°F34°F35°F35°F35°F35°F36°F37°F37°F41°F41°F37°F36°F35°F35°F35°F35°F35°F35°F35°F35°F34°F36°F38°F39°F39°F36°F33°F33°F34°F34°F
Pressure 29.97"29.97"29.97"29.97"30"30.03"30.03"30.03"30.03"30.03"30.03"30.06"30.06"30.09"30.09"30.09"30.09"30.09"30.09"30.06"30.06"30.06"30.06"30.03"30.03"30.03"30.03"30.03"30.06"30.09"30.12"30.12"30.12"30.15"30.15"30.15"30.15"30.15"30.18"30.18"30.18"30.18"30.18"30.18"30.15"30.15"30.12"30.12"
Wind Speed 16.6 mph15.2 mph12.4 mph6.1 mph1.2 mph4 mph4 mph3.6 mph3.8 mph3.9 mph4.1 mph4.5 mph4.4 mph3.4 mph3.2 mph2.8 mph2.6 mph2.7 mph3.3 mph6.8 mph9.4 mph11.2 mph12.3 mph13.1 mph12.6 mph12 mph9.8 mph6.5 mph3.8 mph1.7 mph1.2 mph2.8 mph3.3 mph3.2 mph3.6 mph3.3 mph3.2 mph2.6 mph1.9 mph1.7 mph1.7 mph0.1 mph3.4 mph8 mph12.1 mph14.9 mph16.2 mph16.3 mph
Wind
Direction
46°
NE
54°
NE
67°
ENE
68°
ENE
21°
NNE
309°
NW
317°
NW
313°
NW
313°
NW
309°
NW
302°
WNW
296°
WNW
305°
NW
314°
NW
308°
NW
312°
NW
308°
NW
327°
NNW
44°
NE
54°
NE
60°
ENE
55°
NE
54°
NE
60°
ENE
59°
ENE
57°
ENE
64°
ENE
78°
ENE
97°
E
89°
E
334°
NNW
310°
NW
311°
NW
306°
NW
297°
WNW
292°
WNW
293°
WNW
293°
WNW
290°
WNW
288°
WNW
272°
W
74°
ENE
91°
E
81°
E
74°
ENE
65°
ENE
62°
ENE
64°
ENE

Daily Forecast

Date High Low Precip. Humidity
Today
Apr 14

Clear
64 °F
41 °F
0%
31%
Thursday
Apr 15

Clear
70 °F
45 °F
0%
32%
Friday
Apr 16

Clear
73 °F
49 °F
0%
26%
Saturday
Apr 17

Clear
76 °F
51 °F
0%
31%
Sunday
Apr 18

Clouds
79 °F
54 °F
0%
30%
Monday
Apr 19

Rain
74 °F
53 °F
34%
33%
Tuesday
Apr 20

Rain
63 °F
49 °F
22%
43%
Wednesday
Apr 21

Rain
66 °F
45 °F
37%
50%
Thursday
Apr 22

Clear
73 °F
46 °F
0%
39%
Friday
Apr 23

Clouds
74 °F
52 °F
0%
34%
Saturday
Apr 24

Rain
65 °F
53 °F
56%
56%
Sunday
Apr 25

Clouds
60 °F
46 °F
64%
48%
Monday
Apr 26

Clouds
62 °F
46 °F
4%
49%
Tuesday
Apr 27

Clouds
72 °F
46 °F
0%
39%
Wednesday
Apr 28

Clouds
69 °F
55 °F
21%
47%
Thursday
Apr 29

Rain
58 °F
50 °F
90%
81%

Temperature 8-14 Day Outlook



Precipitation 8-14 Day Outlook




Quick Links
Lake Celilo News
Lake Celilo Photos
Lake Celilo Videos




About Us
Contact Us
Site Map
Search Site
Advertise With Us
   
Celilo.LakesOnline.com
THE LAKE CELILO WEBSITE

Copyright 2021, Lakes Online
Privacy    |    Legal